KMK408 PHLI-PHNL

Flight info

Callsign KMK408
Flight time N/A
Altitude 9000
Route LIH V15 BOOKE BOOKE8
Aircraft C408/M-SDFGRY/S

Departure

Time 2026-04-11 03:15
Airport Lihue Airport (PHLI)

Arrival

Time N/A
Airport Daniel K. Inouye International Airport (PHNL)
Time Latitude Longitude Altitude Speed Heading
2026-04-11 02:48 21.98253 -159.34330 116 ft 0 kts 43°
2026-04-11 03:08 21.98255 -159.34328 114 ft 2 kts 43°
2026-04-11 03:09 21.98213 -159.34285 114 ft 16 kts 153°
2026-04-11 03:09 21.98118 -159.34191 114 ft 16 kts 118°
2026-04-11 03:09 21.98174 -159.34106 113 ft 23 kts 46°
2026-04-11 03:09 21.98231 -159.34044 112 ft 0 kts 44°
2026-04-11 03:11 21.98293 -159.33978 108 ft 29 kts 46°
2026-04-11 03:11 21.98414 -159.33848 100 ft 15 kts 48°
2026-04-11 03:11 21.98385 -159.33784 99 ft 14 kts 141°
2026-04-11 03:12 21.98295 -159.33703 99 ft 15 kts 171°
2026-04-11 03:12 21.98196 -159.33710 100 ft 10 kts 177°
2026-04-11 03:12 21.98159 -159.33685 100 ft 0 kts 102°
2026-04-11 03:12 21.98158 -159.33675 99 ft 9 kts 95°
2026-04-11 03:13 21.98152 -159.33596 100 ft 8 kts 128°
2026-04-11 03:13 21.98124 -159.33590 99 ft 0 kts 183°
2026-04-11 03:14 21.98046 -159.33592 99 ft 41 kts 180°
2026-04-11 03:14 21.97545 -159.33593 96 ft 102 kts 180°
2026-04-11 03:14 21.96720 -159.33608 277 ft 128 kts 180°
2026-04-11 03:15 21.95843 -159.33596 725 ft 129 kts 173°
2026-04-11 03:15 21.95103 -159.33125 1170 ft 129 kts 124°
2026-04-11 03:15 21.94876 -159.32186 1586 ft 134 kts 91°
2026-04-11 03:15 21.94832 -159.31179 1993 ft 135 kts 107°
2026-04-11 03:16 21.94405 -159.30266 2344 ft 141 kts 127°
2026-04-11 03:16 21.93890 -159.29423 2891 ft 134 kts 126°
2026-04-11 03:16 21.93550 -159.28837 3156 ft 138 kts 124°
2026-04-11 03:16 21.93044 -159.27942 3563 ft 141 kts 124°
2026-04-11 03:17 21.92540 -159.27036 4006 ft 142 kts 125°
2026-04-11 03:17 21.92032 -159.26119 4445 ft 143 kts 126°
2026-04-11 03:17 21.91523 -159.25192 4872 ft 145 kts 127°
2026-04-11 03:17 21.91004 -159.24262 5294 ft 145 kts 128°
2026-04-11 03:18 21.90488 -159.23331 5703 ft 147 kts 129°
2026-04-11 03:18 21.89964 -159.22380 6091 ft 149 kts 130°
2026-04-11 03:18 21.89432 -159.21418 6513 ft 150 kts 130°
2026-04-11 03:18 21.88892 -159.20447 6924 ft 152 kts 130°
2026-04-11 03:19 21.88347 -159.19462 7325 ft 154 kts 130°
2026-04-11 03:19 21.87799 -159.18474 7727 ft 155 kts 130°
2026-04-11 03:19 21.87243 -159.17471 8114 ft 157 kts 130°
2026-04-11 03:19 21.86678 -159.16455 8497 ft 159 kts 129°
2026-04-11 03:20 21.86108 -159.15426 8890 ft 161 kts 129°
2026-04-11 03:20 21.85499 -159.14340 9011 ft 180 kts 128°
2026-04-11 03:20 21.84823 -159.13128 9020 ft 196 kts 128°
2026-04-11 03:20 21.84115 -159.11844 9012 ft 203 kts 127°
2026-04-11 03:21 21.83388 -159.10528 9005 ft 206 kts 127°
2026-04-11 03:21 21.82654 -159.09202 9013 ft 206 kts 127°
2026-04-11 03:21 21.81917 -159.07874 9013 ft 207 kts 127°
2026-04-11 03:21 21.81182 -159.06550 9007 ft 206 kts 127°
2026-04-11 03:22 21.80444 -159.05223 9015 ft 207 kts 127°
2026-04-11 03:22 21.79705 -159.03893 9002 ft 207 kts 127°
2026-04-11 03:22 21.78965 -159.02562 9010 ft 207 kts 127°
2026-04-11 03:22 21.78217 -159.01234 9003 ft 208 kts 128°
2026-04-11 03:23 21.77468 -158.99910 9003 ft 207 kts 128°
2026-04-11 03:23 21.76719 -158.98586 9016 ft 207 kts 128°
2026-04-11 03:23 21.75970 -158.97256 9003 ft 208 kts 128°
2026-04-11 03:23 21.75219 -158.95928 9011 ft 208 kts 128°
2026-04-11 03:24 21.74471 -158.94601 9012 ft 207 kts 128°
2026-04-11 03:24 21.73721 -158.93276 9003 ft 207 kts 128°
2026-04-11 03:24 21.72973 -158.91952 9003 ft 207 kts 128°
2026-04-11 03:24 21.72225 -158.90628 9011 ft 207 kts 128°
2026-04-11 03:25 21.71474 -158.89310 9002 ft 207 kts 128°
2026-04-11 03:25 21.70718 -158.87994 9002 ft 207 kts 128°
2026-04-11 03:25 21.69969 -158.86673 9016 ft 207 kts 128°
2026-04-11 03:25 21.69231 -158.85366 9016 ft 207 kts 128°
2026-04-11 03:26 21.68483 -158.84042 9003 ft 207 kts 128°
2026-04-11 03:26 21.67734 -158.82718 9010 ft 207 kts 128°
2026-04-11 03:26 21.66984 -158.81394 9009 ft 207 kts 128°
2026-04-11 03:26 21.66235 -158.80072 9012 ft 207 kts 128°
2026-04-11 03:27 21.65490 -158.78753 9000 ft 205 kts 128°
2026-04-11 03:27 21.64752 -158.77445 8998 ft 205 kts 128°
2026-04-11 03:27 21.64008 -158.76140 8995 ft 204 kts 128°
2026-04-11 03:27 21.63272 -158.74842 8995 ft 204 kts 128°
2026-04-11 03:28 21.62532 -158.73533 8994 ft 206 kts 128°
2026-04-11 03:28 21.61788 -158.72219 9003 ft 206 kts 128°
2026-04-11 03:28 21.61041 -158.70905 9003 ft 206 kts 128°
2026-04-11 03:28 21.60295 -158.69589 9004 ft 206 kts 128°
2026-04-11 03:29 21.59548 -158.68273 9003 ft 206 kts 128°
2026-04-11 03:29 21.58833 -158.67001 8988 ft 189 kts 128°
2026-04-11 03:29 21.58173 -158.65828 8989 ft 178 kts 129°
2026-04-11 03:29 21.57528 -158.64704 8990 ft 178 kts 129°
2026-04-11 03:30 21.56884 -158.63575 8994 ft 178 kts 129°
2026-04-11 03:30 21.56238 -158.62438 8990 ft 177 kts 129°
2026-04-11 03:30 21.55596 -158.61308 8995 ft 181 kts 129°
2026-04-11 03:30 21.54942 -158.60160 9000 ft 178 kts 128°
2026-04-11 03:31 21.54306 -158.59026 8996 ft 176 kts 130°
2026-04-11 03:31 21.53665 -158.57911 8992 ft 174 kts 129°
2026-04-11 03:31 21.53052 -158.56820 8987 ft 167 kts 129°
2026-04-11 03:31 21.52451 -158.55767 8993 ft 166 kts 130°
2026-04-11 03:32 21.51839 -158.54695 8993 ft 170 kts 129°
2026-04-11 03:32 21.51214 -158.53596 8982 ft 176 kts 129°
2026-04-11 03:32 21.50576 -158.52476 8773 ft 177 kts 129°